[[{"header":{"parameterUnit":"m.s-1","parameterCategory":1,"la1":30.2991,"la2":30.254,"lo1":-89.0895,"lo2":-89.0444,"dy":0.0017,"dx":0.0017,"nx":28,"ny":28,"refTime":"2024-07-19T03:00:00:Z","depth":0,"parameterNumber":2,"parameterNumberName":"U-component_of_WINDS"},"data":[0,0,0,0,0,0,0,0,0,0,0,0,0,0,0,0,0,0,0,0,0,0,0,0,0,0,0,0,0,0,0,0,0,0,0,0,0,0,0,0,0,0,0,0,0,0,0,0,0,0,0,0,0,0,0,0,0,0,1.0637,1.0638,0,1.0729,1.073,1.0731,1.0783,1.0783,1.0783,1.0783,1.0876,1.0878,1.088,0,0,0,0,0,0,0,0,0,0,0,0,0,1.0505,1.0507,1.0637,1.0638,1.064,1.0729,1.073,1.0732,1.0783,1.0783,1.0783,1.0783,1.0875,1.0878,1.0881,0,0,0,0,0,0,0,0,0,0,0,0,0,1.0576,1.0508,1.0637,1.0676,1.068,1.0729,1.0731,1.0732,1.0783,1.0783,1.0783,1.0783,1.0874,1.0878,1.0881,1.0898,0,0,1.0892,1.0893,0,0,0,0,0,0,0,0,1.0572,1.0581,1.0669,1.0673,1.0678,1.0745,1.0718,1.0788,1.0783,1.0744,1.0783,1.0783,1.0832,1.0839,1.0856,1.0902,1.0906,1.0892,1.0894,1.0896,1.0897,0,0,0,0,0,0,0,1.0567,1.0577,1.0674,1.067,1.0676,1.0688,1.0699,1.0731,1.0785,1.0747,1.0751,1.0761,1.0835,1.0852,1.0858,1.0907,1.0892,1.0895,1.0897,1.0898,1.0974,1.0974,0,0,0,0,0,0,1.0556,1.0573,1.0671,1.0676,1.0625,1.0691,1.0702,1.0723,1.0785,1.0795,1.0761,1.0763,1.0846,1.0854,1.0862,1.0886,1.0896,1.0899,1.0901,1.0974,1.0974,1.0973,0,0,0,0,0,0,1.0553,1.0564,1.0667,1.0626,1.064,1.0693,1.0716,1.0725,1.0743,1.0796,1.0805,1.0769,1.0847,1.0857,1.0889,1.089,1.09,1.0904,1.0974,1.0974,1.0974,1.0934,0,0,0,0,0,0,1.0549,1.0563,1.057,1.0626,1.0642,1.0693,1.0716,1.0727,1.0749,1.0753,1.0806,1.0815,1.0848,1.0883,1.0892,1.0895,1.0906,1.0974,1.0974,1.0974,1.0936,1.0933,1.093,0,0,0,0,0,1.0544,1.0555,1.057,1.0582,1.0652,1.0693,1.0702,1.074,1.0748,1.0756,1.079,1.0813,1.0888,1.0886,1.0897,1.09,1.0974,1.0974,1.0974,1.0937,1.0933,1.093,0,0,0,0,0,0,1.0497,1.0563,1.058,1.0609,1.0645,1.0701,1.0712,1.0735,1.0768,1.077,1.0815,1.0827,1.0855,1.0881,1.0877,1.0921,1.0934,1.0936,1.0902,1.0899,1.0897,1.089,1.0909,0,0,0,0,0,1.049,1.0518,1.0574,1.0594,1.0611,1.0658,1.0677,1.0703,1.0742,1.0757,1.0794,1.083,1.0863,1.0882,1.0915,1.094,1.0953,1.0948,1.0945,1.0943,1.0944,1.096,1.0959,1.0973,1.0973,1.0973,0,0,1.0475,1.0515,1.053,1.0585,1.0616,1.0644,1.067,1.0699,1.072,1.0762,1.0794,1.0822,1.0866,1.0895,1.091,1.0918,1.0943,1.0942,1.094,1.0943,1.0959,1.0958,1.0957,1.0973,1.0973,1.0973,0,0,1.0463,1.0496,1.0517,1.0547,1.0594,1.0626,1.0631,1.0684,1.0704,1.0738,1.077,1.0796,1.085,1.088,1.0903,1.0904,1.0926,1.0913,1.0899,1.0914,1.0913,1.0912,1.0913,1.0912,1.0914,1.0914,1.0914,0,1.0439,1.0483,1.0524,1.0551,1.0575,1.0615,1.0636,1.0664,1.0718,1.0734,1.0742,1.0812,1.0844,1.0881,1.0881,1.0898,1.0905,1.0907,1.091,1.0909,1.0909,1.091,1.091,1.0912,1.0912,1.0912,1.0912,0,1.0451,1.0481,1.0492,1.0545,1.057,1.0594,1.0639,1.0659,1.0683,1.0714,1.0748,1.0789,1.083,1.0841,1.0865,1.0882,1.0885,1.0901,1.0915,1.0905,1.0907,1.0908,1.0909,1.091,1.091,1.0911,0,0,1.0411,1.0487,1.0491,1.0515,1.0571,1.0594,1.062,1.0662,1.0679,1.0715,1.0738,1.0784,1.0799,1.0824,1.0852,1.0865,1.0864,1.088,1.0882,1.0876,1.0886,1.0874,1.0874,1.088,1.088,1.088,1.0883,0,1.0407,1.0456,1.0494,1.0529,1.0557,1.0596,1.0619,1.0655,1.0685,1.0713,1.0746,1.0778,1.0795,1.0811,1.0826,1.0861,1.0867,1.0862,1.0902,1.0903,1.0889,1.0875,1.0862,1.0862,1.0884,1.0884,1.0884,0,1.0408,1.0445,1.0482,1.0535,1.0549,1.0568,1.061,1.0637,1.0679,1.07,1.0729,1.0758,1.0787,1.0799,1.084,1.0836,1.0855,1.0875,1.0876,1.088,1.0892,1.0879,1.0863,1.0862,1.0885,1.0885,1.0885,0,1.0375,1.0433,1.0463,1.0483,1.0546,1.0559,1.0586,1.0629,1.0652,1.0688,1.0704,1.0743,1.0764,1.0794,1.0833,1.0837,1.087,1.0885,1.0888,1.0887,1.0893,1.0892,1.0879,1.0905,1.0905,1.0905,1.0905,0,1.0366,1.0388,1.045,1.0468,1.0493,1.0538,1.0561,1.0592,1.0629,1.0655,1.0691,1.0714,1.0764,1.0793,1.0823,1.0853,1.0863,1.088,1.0888,1.0877,1.0875,1.089,1.0891,1.0905,1.0905,1.0905,1.0905,0,1.0333,1.0375,1.0411,1.0468,1.0483,1.0499,1.0548,1.0568,1.06,1.0632,1.0642,1.0692,1.0728,1.077,1.082,1.0841,1.0868,1.088,1.0854,1.0858,1.0859,1.0859,1.0855,1.0857,1.0882,1.0881,1.0881,0,1.0324,1.0342,1.0402,1.0422,1.0448,1.0479,1.0503,1.0547,1.0571,1.0621,1.0635,1.0674,1.0707,1.0763,1.0804,1.0843,1.0855,1.0852,1.0861,1.085,1.0856,1.0854,1.0856,1.0849,1.0848,1.0848,1.0848,0,1.0305,1.0325,1.0359,1.04,1.0427,1.0462,1.0497,1.0511,1.0563,1.0588,1.0626,1.0652,1.0703,1.0742,1.0785,1.0813,1.0839,1.0844,1.0847,1.0836,1.082,1.0829,1.0846,1.0844,1.0844,1.0845,1.0845,1.0845,1.0284,1.0302,1.0347,1.0383,1.0415,1.0448,1.0469,1.0505,1.0537,1.0583,1.0607,1.0645,1.0688,1.075,1.0777,1.0807,1.0816,1.082,1.0821,1.0821,1.0818,1.0816,1.0815,1.0815,1.0815,1.0815,1.0816,0,1.0266,1.0297,1.033,1.038,1.0408,1.0431,1.0473,1.0495,1.0527,1.0566,1.0599,1.0642,1.068,1.0725,1.0766,1.0781,1.0794,1.0791,1.079,1.0796,1.0807,1.0801,1.078,1.078,1.078,1.078,1.078,1.078,1.026,1.0292,1.0318,1.0366,1.0397,1.0435,1.0456,1.0487,1.0518,1.0565,1.0597,1.0627,1.0668,1.0712,1.0748,1.0761,1.0774,1.0766,1.0782,1.0792,1.0795,1.0798,1.0792,1.0769,1.0769,1.0768,1.0768,1.0768]},{"header":{"parameterUnit":"m.s-1","parameterCategory":1,"la1":30.2991,"la2":30.254,"lo1":-89.0895,"lo2":-89.0444,"dy":0.0017,"dx":0.0017,"nx":28,"ny":28,"refTime":"2024-07-19T03:00:00:Z","depth":0,"parameterNumber":3,"parameterNumberName":"V-component_of_WINDS"},"data":[0,0,0,0,0,0,0,0,0,0,0,0,0,0,0,0,0,0,0,0,0,0,0,0,0,0,0,0,0,0,0,0,0,0,0,0,0,0,0,0,0,0,0,0,0,0,0,0,0,0,0,0,0,0,0,0,0,0,1.4371,1.4373,0,1.4564,1.4566,1.4569,1.4594,1.4592,1.459,1.4589,1.4788,1.4795,1.4802,0,0,0,0,0,0,0,0,0,0,0,0,0,1.4023,1.4029,1.437,1.4373,1.4375,1.4564,1.4567,1.4569,1.4595,1.4592,1.459,1.4588,1.4786,1.4794,1.4802,0,0,0,0,0,0,0,0,0,0,0,0,0,1.4191,1.4031,1.437,1.4411,1.4416,1.4563,1.4567,1.457,1.4595,1.4592,1.4589,1.4587,1.4783,1.4793,1.4804,1.4924,0,0,1.4836,1.484,0,0,0,0,0,0,0,0,1.4181,1.4204,1.4402,1.4408,1.4415,1.4552,1.4517,1.4689,1.4596,1.4527,1.4589,1.4585,1.4712,1.4728,1.4771,1.4933,1.4942,1.4837,1.4843,1.4848,1.4851,0,0,0,0,0,0,0,1.417,1.4195,1.4447,1.4405,1.4413,1.4419,1.444,1.455,1.4633,1.4533,1.4535,1.4558,1.4715,1.476,1.4775,1.4945,1.4836,1.4846,1.4852,1.4856,1.5216,1.5219,0,0,0,0,0,0,1.415,1.4185,1.4441,1.4453,1.4289,1.4428,1.4451,1.4511,1.4632,1.4647,1.456,1.4558,1.4744,1.4763,1.4782,1.4932,1.4848,1.4857,1.4863,1.5213,1.5217,1.522,0,0,0,0,0,0,1.4143,1.4173,1.4433,1.432,1.4354,1.4437,1.4504,1.4516,1.4562,1.4652,1.4667,1.4591,1.4742,1.4768,1.4889,1.4939,1.4862,1.4872,1.5209,1.5214,1.5219,1.5231,0,0,0,0,0,0,1.4133,1.417,1.4217,1.4321,1.436,1.4536,1.4507,1.4522,1.458,1.4579,1.4685,1.47,1.4742,1.4873,1.4899,1.4952,1.488,1.5205,1.5211,1.5217,1.5227,1.5236,1.5244,0,0,0,0,0,1.412,1.4213,1.4219,1.425,1.442,1.4539,1.4561,1.4607,1.4584,1.4632,1.4689,1.4697,1.4929,1.4885,1.4915,1.4972,1.5202,1.521,1.5217,1.5223,1.5234,1.5244,0,0,0,0,0,0,1.4113,1.4227,1.4235,1.4364,1.4442,1.4543,1.4605,1.4618,1.4704,1.47,1.4753,1.4777,1.4895,1.4946,1.4894,1.5095,1.5063,1.5077,1.5058,1.5069,1.5078,1.5064,1.4889,0,0,0,0,0,1.4127,1.4214,1.4309,1.4413,1.4452,1.4521,1.4575,1.4604,1.4686,1.4719,1.4786,1.4866,1.4957,1.5015,1.5104,1.5233,1.5257,1.5287,1.5296,1.5302,1.5314,1.5387,1.5401,1.5244,1.5244,1.5244,0,0,1.4156,1.4229,1.4281,1.4414,1.4477,1.4567,1.4549,1.4644,1.4711,1.4734,1.4852,1.4904,1.4996,1.5122,1.5181,1.5167,1.5362,1.5312,1.5316,1.5325,1.5396,1.541,1.5423,1.5249,1.5248,1.5247,0,0,1.4254,1.4318,1.4412,1.4476,1.4571,1.4617,1.4639,1.4739,1.4774,1.4893,1.4912,1.4992,1.5147,1.5213,1.5266,1.5388,1.5398,1.5415,1.546,1.553,1.5543,1.5554,1.5598,1.5613,1.5426,1.5426,1.5426,0,1.4278,1.4414,1.4459,1.4554,1.4612,1.4636,1.4732,1.4791,1.4911,1.4951,1.4934,1.5129,1.5193,1.5334,1.5364,1.5406,1.5434,1.5404,1.5537,1.5549,1.556,1.5603,1.5619,1.5427,1.5427,1.5427,1.5427,0,1.4439,1.4532,1.4597,1.4712,1.4777,1.4872,1.4932,1.4992,1.5014,1.5061,1.5183,1.526,1.5365,1.54,1.5423,1.5545,1.5534,1.5526,1.5496,1.5576,1.5617,1.5634,1.5429,1.5429,1.5428,1.5428,0,0,1.4541,1.4678,1.4701,1.4754,1.486,1.4934,1.5029,1.5131,1.5182,1.5263,1.5345,1.5475,1.5469,1.553,1.556,1.5621,1.5713,1.5606,1.5609,1.5624,1.5853,1.5859,1.5877,1.572,1.5723,1.5726,1.5845,0,1.4653,1.4824,1.4867,1.5013,1.51,1.5123,1.5206,1.528,1.5326,1.5407,1.5458,1.555,1.5534,1.5571,1.5632,1.5689,1.576,1.568,1.5797,1.5801,1.5775,1.5899,1.5906,1.6015,1.5862,1.5864,1.5866,0,1.4807,1.4891,1.5046,1.514,1.5179,1.5253,1.5349,1.5426,1.551,1.5539,1.5606,1.563,1.5731,1.5693,1.5833,1.5778,1.5828,1.5863,1.5868,1.5882,1.584,1.5917,1.6051,1.6068,1.5892,1.589,1.5888,0,1.4867,1.5019,1.5131,1.5175,1.5288,1.534,1.5389,1.5471,1.5529,1.5613,1.5652,1.5746,1.5798,1.5871,1.592,1.5888,1.6055,1.6022,1.6083,1.6082,1.6119,1.6117,1.6264,1.6148,1.6148,1.6148,1.6147,0,1.4989,1.5083,1.516,1.5229,1.5335,1.5383,1.5486,1.5536,1.5608,1.5688,1.5712,1.5786,1.5845,1.5927,1.5966,1.6076,1.6099,1.6126,1.6135,1.6125,1.6121,1.616,1.6154,1.6152,1.6151,1.615,1.615,0,1.5075,1.513,1.5254,1.535,1.5377,1.545,1.5533,1.5601,1.5647,1.5747,1.5773,1.5846,1.5943,1.5998,1.6121,1.6147,1.627,1.6275,1.6242,1.6246,1.6305,1.6299,1.6483,1.6511,1.6375,1.6376,1.6377,0,1.515,1.5223,1.5326,1.5381,1.5431,1.5519,1.5578,1.5628,1.5689,1.579,1.5846,1.5944,1.6027,1.6181,1.6245,1.6339,1.6348,1.6406,1.6362,1.6349,1.635,1.6346,1.6354,1.6414,1.6415,1.6416,1.6417,0,1.5277,1.5301,1.5385,1.5479,1.5549,1.5626,1.5702,1.5745,1.5807,1.5874,1.5974,1.6037,1.6162,1.6261,1.6359,1.6411,1.6425,1.643,1.6449,1.644,1.6418,1.6432,1.6264,1.6426,1.6425,1.6424,1.6424,1.6424,1.5362,1.5427,1.551,1.5604,1.5665,1.5735,1.5804,1.5858,1.5942,1.6048,1.6071,1.6177,1.6259,1.6393,1.6446,1.653,1.6519,1.6547,1.6554,1.6561,1.6564,1.6403,1.6548,1.6548,1.6547,1.6547,1.6547,0,1.5492,1.5546,1.5631,1.5736,1.5809,1.5814,1.5898,1.5959,1.6051,1.6126,1.6206,1.6321,1.6416,1.6486,1.6583,1.6636,1.6645,1.666,1.6658,1.667,1.6567,1.6541,1.6652,1.6652,1.6652,1.6651,1.6651,1.6651,1.5568,1.568,1.5712,1.5855,1.5908,1.6012,1.6059,1.6124,1.6184,1.6311,1.639,1.6434,1.6508,1.661,1.6697,1.6716,1.6751,1.6766,1.6785,1.6688,1.6677,1.6666,1.6642,1.6772,1.6773,1.6881,1.6882,1.6883]}]]